[[{"header":{"parameterUnit":"m.s-1","parameterCategory":1,"la1":30.2991,"la2":30.254,"lo1":-89.0895,"lo2":-89.0444,"dy":0.0017,"dx":0.0017,"nx":28,"ny":28,"refTime":"2025-05-18T21:00:00:Z","depth":0,"parameterNumber":2,"parameterNumberName":"U-component_of_WINDS"},"data":[0,0,0,0,0,0,0,0,0,0,0,0,0,0,0,0,0,0,0,0,0,0,0,0,0,0,0,0,0,0,0,0,0,0,0,0,0,0,0,0,0,0,0,0,0,0,0,0,0,0,0,0,0,0,0,0,0,0,0.384,0.3841,0,0.391,0.3911,0.3912,0.3929,0.3929,0.3929,0.3928,0.4,0.4002,0.4004,0,0,0,0,0,0,0,0,0,0,0,0,0,0.3719,0.3721,0.384,0.3841,0.3842,0.391,0.3911,0.3912,0.3929,0.3929,0.3928,0.3928,0.3999,0.4002,0.4005,0,0,0,0,0,0,0,0,0,0,0,0,0,0.3779,0.3722,0.384,0.3859,0.3861,0.391,0.3911,0.3912,0.393,0.3929,0.3928,0.3928,0.3998,0.4002,0.4005,0.404,0,0,0.4016,0.4017,0,0,0,0,0,0,0,0,0.3775,0.3783,0.3855,0.3857,0.386,0.391,0.3895,0.3955,0.393,0.3904,0.3928,0.3927,0.3971,0.3976,0.3991,0.4043,0.4047,0.4016,0.4018,0.402,0.4021,0,0,0,0,0,0,0,0.3771,0.378,0.3868,0.3856,0.3859,0.3863,0.3871,0.3906,0.394,0.3906,0.3907,0.3915,0.3972,0.3988,0.3993,0.4048,0.4016,0.4019,0.4021,0.4023,0.4131,0.4132,0,0,0,0,0,0,0.3764,0.3777,0.3866,0.387,0.3815,0.3866,0.3874,0.3895,0.394,0.3946,0.3916,0.3916,0.3982,0.3989,0.3995,0.4039,0.402,0.4023,0.4025,0.413,0.4131,0.4132,0,0,0,0,0,0,0.3761,0.3772,0.3863,0.3824,0.3836,0.3869,0.3892,0.3897,0.3912,0.3947,0.3953,0.3926,0.3982,0.399,0.4029,0.4041,0.4024,0.4028,0.4129,0.413,0.4131,0.4126,0,0,0,0,0,0,0.3758,0.3771,0.3785,0.3824,0.3838,0.3895,0.3892,0.3899,0.3918,0.3919,0.3958,0.3964,0.3982,0.4023,0.4032,0.4046,0.403,0.4128,0.413,0.4131,0.4125,0.4126,0.4128,0,0,0,0,0,0.3753,0.3781,0.3785,0.3796,0.3856,0.3896,0.3904,0.3924,0.3919,0.3934,0.3956,0.3963,0.4038,0.4027,0.4037,0.4052,0.4127,0.4129,0.4131,0.4124,0.4126,0.4128,0,0,0,0,0,0,0.3742,0.3786,0.3792,0.3833,0.386,0.3899,0.3917,0.3925,0.3955,0.3954,0.3978,0.3986,0.4023,0.4041,0.4028,0.4088,0.4083,0.4087,0.4074,0.4076,0.4078,0.4073,0.4033,0,0,0,0,0,0.3745,0.3774,0.381,0.3843,0.3856,0.3884,0.3902,0.3915,0.3945,0.3957,0.3982,0.401,0.404,0.4059,0.4089,0.4127,0.4136,0.4143,0.4144,0.4145,0.4148,0.4169,0.4172,0.4138,0.4138,0.4138,0,0,0.375,0.3777,0.3794,0.3841,0.3864,0.3893,0.3894,0.3925,0.3946,0.3961,0.3999,0.4018,0.4051,0.4089,0.4107,0.4105,0.4159,0.4147,0.4148,0.4151,0.4171,0.4174,0.4177,0.4139,0.4139,0.4138,0,0,0.3774,0.3798,0.3827,0.385,0.3884,0.3903,0.3909,0.3946,0.3959,0.3997,0.4009,0.4034,0.4086,0.4108,0.4127,0.4157,0.4165,0.4166,0.4174,0.4194,0.4197,0.4199,0.4209,0.4213,0.4169,0.4169,0.4169,0,0.3776,0.382,0.3841,0.3871,0.3891,0.3905,0.3934,0.3955,0.3998,0.4011,0.4008,0.4072,0.4096,0.4139,0.4146,0.4161,0.4168,0.4162,0.4195,0.4197,0.42,0.421,0.4214,0.4169,0.4169,0.4169,0.4169,0,0.382,0.3851,0.387,0.391,0.3932,0.3962,0.3986,0.4006,0.4016,0.4034,0.4072,0.41,0.4135,0.4146,0.4157,0.419,0.4188,0.419,0.4186,0.4203,0.4213,0.4217,0.4169,0.4169,0.4169,0.4169,0,0,0.384,0.3891,0.3897,0.3915,0.3954,0.3978,0.4007,0.4041,0.4057,0.4085,0.411,0.4152,0.4154,0.4174,0.4188,0.4205,0.4226,0.4205,0.4206,0.4207,0.4264,0.4262,0.4266,0.4231,0.4232,0.4233,0.4261,0,0.3869,0.3922,0.3941,0.3985,0.4013,0.4026,0.4051,0.4077,0.4095,0.412,0.414,0.4169,0.4169,0.4181,0.4199,0.422,0.4238,0.4218,0.4254,0.4255,0.4245,0.4271,0.427,0.4295,0.4265,0.4265,0.4266,0,0.3909,0.3938,0.3984,0.4018,0.403,0.4053,0.4085,0.411,0.4139,0.415,0.4172,0.4184,0.4215,0.4208,0.425,0.4236,0.4251,0.4264,0.4265,0.4269,0.4261,0.4276,0.4304,0.4307,0.4272,0.4272,0.4271,0,0.3918,0.3968,0.4002,0.4017,0.4058,0.4073,0.4091,0.4119,0.4138,0.4166,0.4178,0.4209,0.4226,0.4249,0.4268,0.4262,0.4308,0.4303,0.4318,0.4317,0.4327,0.4326,0.4357,0.4337,0.4337,0.4337,0.4337,0,0.3947,0.3975,0.4006,0.4027,0.4058,0.4079,0.4109,0.4128,0.4153,0.4177,0.419,0.4212,0.4237,0.4262,0.4277,0.4309,0.4316,0.4326,0.433,0.4325,0.4323,0.4335,0.4334,0.4338,0.4338,0.4338,0.4338,0,0.3963,0.3985,0.4023,0.4058,0.4067,0.4088,0.4118,0.4138,0.4156,0.4186,0.4194,0.4222,0.4252,0.4273,0.4312,0.4323,0.4356,0.436,0.4346,0.4348,0.4361,0.4359,0.4401,0.4407,0.4383,0.4383,0.4383,0,0.398,0.4002,0.4039,0.4056,0.4073,0.4101,0.412,0.4141,0.416,0.4194,0.421,0.4241,0.4267,0.4314,0.4337,0.4367,0.4371,0.4383,0.4375,0.4369,0.437,0.4369,0.437,0.4384,0.4385,0.4385,0.4385,0,0.4008,0.4018,0.4045,0.4075,0.4098,0.4123,0.4148,0.4161,0.4186,0.4207,0.4238,0.4258,0.4297,0.4327,0.4359,0.4376,0.4384,0.4387,0.4392,0.4387,0.4378,0.4382,0.4349,0.4386,0.4386,0.4386,0.4386,0.4386,0.4025,0.4044,0.4073,0.4102,0.4123,0.4146,0.4166,0.4186,0.4212,0.4246,0.4256,0.4288,0.4315,0.4359,0.4376,0.4401,0.44,0.4407,0.4409,0.441,0.441,0.4374,0.4407,0.4407,0.4407,0.4407,0.4407,0,0.4053,0.4072,0.4098,0.4133,0.4156,0.4161,0.4189,0.4208,0.4236,0.426,0.4285,0.432,0.4349,0.4374,0.4404,0.4419,0.4423,0.4426,0.4425,0.4428,0.4409,0.4402,0.4422,0.4422,0.4422,0.4422,0.4422,0.4422,0.407,0.4103,0.4115,0.4158,0.4177,0.4208,0.4223,0.4244,0.4264,0.4302,0.4326,0.4342,0.4367,0.4398,0.4425,0.4431,0.4441,0.4443,0.445,0.4432,0.443,0.4428,0.4421,0.4445,0.4445,0.4468,0.4468,0.4468]},{"header":{"parameterUnit":"m.s-1","parameterCategory":1,"la1":30.2991,"la2":30.254,"lo1":-89.0895,"lo2":-89.0444,"dy":0.0017,"dx":0.0017,"nx":28,"ny":28,"refTime":"2025-05-18T21:00:00:Z","depth":0,"parameterNumber":3,"parameterNumberName":"V-component_of_WINDS"},"data":[0,0,0,0,0,0,0,0,0,0,0,0,0,0,0,0,0,0,0,0,0,0,0,0,0,0,0,0,0,0,0,0,0,0,0,0,0,0,0,0,0,0,0,0,0,0,0,0,0,0,0,0,0,0,0,0,0,0,4.737,4.7371,0,4.7417,4.7417,4.7418,4.7355,4.7353,4.7351,4.7349,4.7391,4.7394,4.7397,0,0,0,0,0,0,0,0,0,0,0,0,0,4.7222,4.7225,4.737,4.7371,4.7371,4.7417,4.7417,4.7418,4.7356,4.7353,4.735,4.7348,4.739,4.7394,4.7398,0,0,0,0,0,0,0,0,0,0,0,0,0,4.7279,4.7226,4.737,4.7346,4.7344,4.7417,4.7417,4.7418,4.7356,4.7353,4.735,4.7346,4.7389,4.7393,4.7398,4.7495,0,0,4.7413,4.7415,0,0,0,0,0,0,0,0,4.7276,4.7285,4.7349,4.7348,4.7346,4.7377,4.7381,4.7444,4.7357,4.7352,4.7349,4.7345,4.7389,4.7393,4.7409,4.7497,4.7498,4.7413,4.7416,4.7418,4.742,0,0,0,0,0,0,0,4.7272,4.7282,4.7388,4.735,4.7348,4.7331,4.7335,4.7392,4.7388,4.7352,4.7347,4.7354,4.7387,4.7405,4.741,4.7499,4.7413,4.7417,4.742,4.7422,4.7668,4.7671,0,0,0,0,0,0,4.7272,4.728,4.7387,4.739,4.7302,4.7336,4.7341,4.737,4.7387,4.7387,4.7357,4.7351,4.7398,4.7404,4.7411,4.7525,4.7418,4.7423,4.7425,4.7664,4.7669,4.7673,0,0,0,0,0,0,4.7269,4.7282,4.7385,4.7334,4.7345,4.7343,4.7376,4.7373,4.739,4.7391,4.739,4.7376,4.7396,4.7404,4.7475,4.7526,4.7425,4.7429,4.766,4.7666,4.7671,4.7754,0,0,0,0,0,0,4.7265,4.7282,4.7319,4.7335,4.7348,4.745,4.7379,4.7376,4.74,4.7392,4.7409,4.7408,4.7394,4.7468,4.7479,4.753,4.7433,4.7655,4.7662,4.7669,4.7747,4.7762,4.7775,0,0,0,0,0,4.726,4.734,4.7322,4.7335,4.7396,4.7453,4.746,4.7444,4.7404,4.7441,4.7442,4.7408,4.7518,4.7476,4.7488,4.7541,4.7652,4.766,4.7668,4.7741,4.7759,4.7774,0,0,0,0,0,0,4.7328,4.7341,4.7321,4.7409,4.7431,4.7442,4.7489,4.7464,4.7495,4.7487,4.7463,4.7468,4.7543,4.7549,4.7501,4.7635,4.7578,4.7589,4.7629,4.7646,4.766,4.7657,4.7437,0,0,0,0,0,4.7354,4.7401,4.7409,4.7485,4.7498,4.7492,4.7516,4.7501,4.7522,4.753,4.7536,4.7555,4.7595,4.7621,4.7657,4.7748,4.775,4.779,4.7804,4.7816,4.7825,4.7873,4.7891,4.7699,4.7699,4.7699,0,0,4.7406,4.7419,4.745,4.7499,4.7514,4.7562,4.75,4.7552,4.7587,4.7537,4.7605,4.761,4.763,4.7711,4.7747,4.7719,4.7879,4.7826,4.7835,4.7839,4.7884,4.7902,4.7918,4.7705,4.7704,4.7703,0,0,4.7526,4.7542,4.7607,4.7624,4.7648,4.7644,4.766,4.7676,4.7678,4.7745,4.7709,4.7749,4.7817,4.7834,4.7851,4.7978,4.7947,4.799,4.8063,4.811,4.8125,4.8138,4.8183,4.82,4.8,4.8,4.8,0,4.7588,4.766,4.7643,4.7699,4.7722,4.7681,4.7747,4.7763,4.7797,4.7813,4.7781,4.7866,4.7876,4.7961,4.7992,4.8008,4.8024,4.7988,4.8124,4.8138,4.815,4.8192,4.8209,4.8005,4.8005,4.8004,4.8004,0,4.7735,4.7785,4.7835,4.7871,4.7899,4.7959,4.795,4.798,4.7963,4.7962,4.8031,4.8043,4.8081,4.81,4.8083,4.8182,4.8163,4.8129,4.807,4.8173,4.8213,4.8229,4.8012,4.8011,4.8009,4.8008,0,0,4.7898,4.7925,4.7944,4.796,4.7984,4.8022,4.808,4.8119,4.8145,4.817,4.8217,4.8276,4.8244,4.8264,4.8249,4.829,4.839,4.825,4.825,4.8275,4.8499,4.8525,4.8544,4.837,4.8373,4.8376,4.8497,0,4.8018,4.8121,4.8107,4.8205,4.8251,4.8214,4.8264,4.8283,4.8284,4.8321,4.8321,4.8363,4.8318,4.8329,4.8369,4.837,4.8434,4.8361,4.8412,4.8415,4.8408,4.8565,4.8592,4.8706,4.8512,4.8515,4.8517,0,4.8171,4.8204,4.8307,4.8325,4.8344,4.839,4.8424,4.8461,4.8482,4.8479,4.8502,4.848,4.8536,4.8478,4.8555,4.8505,4.8525,4.8529,4.8533,4.8536,4.8472,4.8572,4.8742,4.8759,4.8541,4.8539,4.8537,0,4.828,4.835,4.842,4.8435,4.8458,4.8491,4.8501,4.8519,4.8544,4.8573,4.8589,4.8624,4.8643,4.8671,4.8658,4.8617,4.8737,4.8678,4.8735,4.8736,4.8761,4.876,4.8937,4.8776,4.8776,4.8775,4.8775,0,4.8415,4.8479,4.847,4.8513,4.8584,4.8567,4.8637,4.8642,4.8659,4.8701,4.8671,4.8711,4.8692,4.873,4.8721,4.8786,4.8794,4.8793,4.8789,4.8795,4.8796,4.8808,4.8799,4.878,4.8779,4.8778,4.8777,0,4.8548,4.8544,4.8619,4.8635,4.864,4.8691,4.8704,4.8744,4.8742,4.8797,4.8808,4.8805,4.8849,4.884,4.8887,4.888,4.8962,4.8949,4.8956,4.8952,4.901,4.9005,4.92,4.9225,4.9049,4.9051,4.9052,0,4.8634,4.8683,4.8705,4.8732,4.8746,4.879,4.8816,4.8801,4.8828,4.8856,4.8893,4.8934,4.8967,4.9038,4.9039,4.9075,4.9062,4.9128,4.9067,4.9072,4.9063,4.906,4.9064,4.914,4.9142,4.9144,4.9145,0,4.8787,4.8784,4.8822,4.8861,4.8893,4.8922,4.8948,4.8971,4.8959,4.8991,4.9036,4.9062,4.9111,4.9152,4.9186,4.9195,4.9168,4.9165,4.918,4.9186,4.9188,4.9187,4.8988,4.916,4.9158,4.9157,4.9157,4.9156,4.8899,4.8941,4.8964,4.9008,4.9026,4.9051,4.909,4.9094,4.9132,4.9173,4.9161,4.9213,4.9232,4.9275,4.9288,4.9327,4.9302,4.9324,4.9329,4.9335,4.9342,4.9183,4.9333,4.9332,4.9332,4.9332,4.9331,0,4.9051,4.9064,4.9105,4.9143,4.9178,4.9152,4.9179,4.9209,4.9256,4.9277,4.931,4.9362,4.9402,4.9407,4.9444,4.9475,4.9463,4.9485,4.9482,4.9484,4.9362,4.9345,4.9494,4.9494,4.9494,4.9493,4.9493,4.9493,4.9133,4.9203,4.9202,4.928,4.9291,4.9344,4.9361,4.9384,4.9401,4.9461,4.9495,4.9499,4.9513,4.9551,4.9587,4.9587,4.9602,4.9628,4.9624,4.9509,4.9493,4.9478,4.9462,4.9632,4.9632,4.9742,4.9743,4.9744]}]]